Weather observations for the past three days for
Laughlin Air Force Base Auxiliary Airfield
Metric (Imperial)
Date Time (cdt) Wind (kph) Vis. (km) Weather Sky Cond. Temperature (ºC) Relative Humidity Wind Chill (°C) Heat Index (°C) Pressure Precipitation (cm)
Air Dwpt 6 hour altimeter (cm) sea level (mb) 1 hr 3 hr 6 hr
Max. Min.
31 11:55 SE 19 16.09 A Few Clouds FEW025 31.4 22.1 58% 35 76.12 1013.4
31 10:55 SE 15 16.09 Overcast OVC022 30 22.4 64% 34 76.1 1013.0
31 09:55 SE 22 16.09 Partly Cloudy SCT019 28.8 22.3 68% 32 76.1 1013.0
31 08:55 E 20 16.09 Fair CLR 27 22.6 77% 29 76.1 1013.1
31 07:55 E 17 16.09 Fair CLR 25.7 21.8 79% 27 76.07 1012.7
31 06:55 E 11 16.09 Fair CLR 25.8 21 30.9 25.8 75% 27 76.02 1012.0
31 05:55 E 13 16.09 Fair CLR 26.5 20.5 70% 28 76 1011.6
31 04:55 E 19 16.09 Fair CLR 27.5 20.8 67% 29 75.97 1011.2
31 03:55 E 22 16.09 Fair CLR 28.3 21.3 66% 31 75.95 1010.9
31 02:55 SE 26 16.09 Fair CLR 29.2 21.4 63% 32 75.97 1011.2
31 01:55 SE 24 G 37 16.09 Fair CLR 30 20.8 58% 32 75.97 1011.2
31 00:55 SE 26 16.09 Fair CLR 30.9 19.5 37.1 30.9 51% 33 75.95 1010.9
30 23:55 E 26 16.09 Fair CLR 31.5 18.1 45% 32 75.9 1010.3
30 22:55 E 19 16.09 Fair CLR 31.8 16.9 41% 32 75.87 1010.0
30 21:55 E 17 16.09 Fair CLR 32.3 16.9 40% 33 75.84 1009.7
30 20:55 E 15 16.09 Fair CLR 33.3 16.2 36% 33 75.79 1009.0
30 19:55 E 19 16.09 Fair CLR 35.6 15.8 31% 36 75.74 1008.3
30 18:55 E 26 16.09 Fair CLR 37.2 15 38.4 34 27% 37 75.74 1008.3
30 17:55 SE 20 16.09 Fair CLR 38.1 15.8 27% 39 75.74 1008.2
30 16:55 SE 17 16.09 Fair CLR 38.2 16.4 28% 39 75.74 1008.2
30 15:55 E 20 G 31 16.09 Fair CLR 37.6 18 32% 39 75.82 1009.2
30 14:55 S 17 16.09 Fair CLR 36.8 19.2 36% 39 75.92 1010.6
30 13:55 E 19 G 28 16.09 A Few Clouds FEW046 35.4 20.1 41% 38 76 1011.6
30 12:55 E 20 G 28 16.09 Fair CLR 34.2 21.9 34.2 24.9 49% 38 76.07 1012.7
30 11:55 SE 15 16.09 Fair CLR 32.2 22.3 56% 36 76.15 1013.7
30 10:55 SE 13 16.09 Fair CLR 30.3 22.2 62% 34 76.15 1013.8
30 09:55 E 17 16.09 Fair CLR 28.3 22 69% 31 76.15 1013.8
30 08:55 E 17 16.09 Fair CLR 26.8 21.3 72% 29 76.15 1013.8
30 07:55 E 11 16.09 Fair CLR 25.3 20.7 76% 26 76.12 1013.4
30 06:55 E 11 16.09 Fair CLR 25.6 20.6 29.4 25.5 74% 27 76.07 1012.7
30 05:55 E 13 16.09 Fair CLR 26.3 20.8 72% 28 76.05 1012.3
30 04:55 E 13 16.09 Fair CLR 26.9 20.7 69% 29 76.05 1012.3
30 03:55 E 17 16.09 Fair CLR 27.5 20.5 66% 29 76.02 1011.9
30 02:55 E 19 16.09 Fair CLR 28.2 20.5 63% 30 76.02 1012.0
30 01:55 SE 13 16.09 Fair CLR 28.7 20.1 60% 30 76.05 1012.3
30 00:55 SE 13 16.09 Fair CLR 29.5 19.2 37 29.5 54% 31 76.05 1012.3
29 23:55 SE 17 16.09 Fair CLR 30.6 18 47% 31 76.05 1012.3
29 22:55 E 13 16.09 Fair CLR 30.2 16.9 45% 31 76 1011.7
29 21:55 E 13 16.09 Fair CLR 31.7 17.2 42% 32 75.97 1011.3
29 20:55 E 13 16.09 Fair CLR 33.2 16.9 38% 34 75.92 1010.7
29 19:55 E 19 16.09 Fair CLR 35.4 16.6 33% 36 75.87 1010.0
29 18:55 E 20 16.09 Fair CLR 37.1 16.1 38.5 34.5 29% 38 75.87 1010.0
29 17:55 E 24 16.09 Fair CLR 37.9 16.2 28% 39 75.87 1009.9
29 16:55 E 24 G 31 16.09 Fair CLR 38 16.8 29% 39 75.92 1010.6
29 15:55 E 17 G 31 16.09 A Few Clouds FEW070 37.6 17 30% 39 76 1011.6
29 14:55 SE 17 G 31 16.09 Fair CLR 36.8 17.8 33% 38 76.07 1012.7
29 13:55 SE 17 16.09 Fair CLR 35.3 20 41% 38 76.15 1013.7
29 12:55 E 20 16.09 Fair CLR 34.5 21.1 34.5 24.9 46% 38 76.23 1014.6
29 11:55 E 15 16.09 Fair CLR 32.9 21.4 51% 36 76.25 1015.0
29 10:55 SE 15 16.09 Fair CLR 30.8 21.5 58% 34 76.28 1015.4
29 09:55 E 17 16.09 Fair CLR 29.4 21.6 63% 32 76.25 0.0
29 08:55 E 19 16.09 Fair CLR 27.3 20.8 68% 29 76.25 0.0
29 07:55 E 11 16.09 Fair CLR 25.2 20 73% 26 76.25 1015.1
29 06:55 E 13 12.87 Fair CLR 25.2 19.8 30 25.2 72% 26 76.2 1014.4
29 05:55 E 13 16.09 Fair CLR 25.5 19.4 69% 27 76.2 1014.4
29 04:55 E 17 16.09 Fair CLR 25.8 19.2 67% 27 76.17 1014.0
29 03:55 E 19 16.09 Fair CLR 26.3 19.2 65% 27 76.15 1013.7
29 02:55 NE 11 16.09 A Few Clouds FEW140 26.4 19.5 66% 28 76.15 1013.7
29 00:55 SE 22 16.09 Fair CLR 30.1 18.8 37.7 30.1 51% 31 76.15 1013.7
28 23:55 SE 20 16.09 A Few Clouds FEW080 FEW110 31.1 18.8 48% 32 76.15 1013.7
28 22:55 E 19 16.09 Fair CLR 31.3 18.6 47% 32 76.1 1013.0
28 19:55 NE 17 16.09 Partly Cloudy SCT130 34.3 18.3 39% 36 75.92 1010.7
28 18:55 E 17 16.09 A Few Clouds FEW140 37.8 15.5 38.3 33.5 27% 38 75.92 1010.6
28 17:55 SE 19 16.09 Fair CLR 38.2 17 29% 39 75.9 1010.3
28 16:55 SE 13 16.09 Fair CLR 38 16.8 29% 39 75.92 1010.6
28 15:55 E 7 16.09 Fair CLR 37.1 18.1 33% 39 76.02 1012.0
28 14:55 SE 13 16.09 Fair CLR 36.4 18.9 36% 38 76.12 1013.3
28 13:55 SE 11 16.09 Fair CLR 35.4 19.7 40% 38 76.2 1014.4
28 12:55 E 13 16.09 Fair CLR 33.7 20.1 33.9 24.5 45% 36 76.28 1015.4
Date Time (cdt) Wind (kph) Vis. (km) Weather Sky Cond. Air Dwpt Max. Min. Relative Humidity Wind Chill (°C) Heat Index (°C) altimeter (cm) sea level (mb) 1 hr 3 hr 6 hr
6 hour
Temperature (ºC) Pressure Precipitation (cm)